Location: Bruderhein
(53.8035°N, 112.9265°W)
Time: 07:00:25
(UTC+00:00)

TIGRISAT - Pass Details

Date: 02 April 2023
Orbit: 599 x 682 km, 97.7° (Epoch: 03 June)

Event Time Altitude Azimuth Distance (km) Brightness Sun altitude
Rises 10:04:34 0° 99° (E) 2,974 ? -23.5°
Reaches altitude 10° 10:08:22 10° 66° (ENE) 2,090 ? -23.1°
Maximum altitude 10:09:44 11° 48° (NE) 2,014 ? -23.0°
Drops below altitude 10° 10:11:06 10° 31° (NNE) 2,107 ? -22.9°
Sets 10:14:59 0° 358° (N) 3,044 ? -22.5°
